Weather History for PASD - December, 2013

Change the Weather History Date:

Sunday, December 22, 2013

  Actual Average (PACD) Record (PACD)
Temperature  
Mean Temperature 28 °F 30 °F  
Max Temperature 30 °F 35 °F 51 °F (1970)
Min Temperature 26 °F 26 °F -1 °F (2006)
Degree Days  
Heating Degree Days 37 35  
Month to date heating degree days 734  
Since 1 July heating degree days 3760  
Cooling Degree Days 0    
Month to date cooling degree days  
Year to date cooling degree days  
Moisture  
Dew Point 20 °F    
Average Humidity 72    
Maximum Humidity 86    
Minimum Humidity 59    
Precipitation  
Precipitation 0.00 in 0.13 in 0.68 in (1983)
Month to date precipitation 3.35  
Year to date precipitation 40.56  
Snow  
Snow 0.00 in 0.30 in 3.30 in (1975)
Month to date snowfall 8.7  
Since 1 July snowfall 21.3  
Snow Depth -    
Sea Level Pressure  
Sea Level Pressure 30.01 in    
Wind  
Wind Speed 23 mph (NNW)    
Max Wind Speed 33 mph    
Max Gust Speed 41 mph    
Visibility 10 miles    
Events      
T = Trace of Precipitation, MM = Missing Value Source: NWS Daily Summary

Daily Weather History Graph

Daily Weather History Graph

Search for Another Location

Airport or City:

Trip Planner

Search our weather history database for the weather conditions in past years. The results will help you decide how hot, cold, wet, or windy it might be!

Date:

Astronomy

Dec. 22, 2013 Rise Set
Actual Time 10:07 AM AKST 5:14 PM AKST
Civil Twilight 9:21 AM AKST 6:00 PM AKST
Nautical Twilight 8:33 AM AKST 6:48 PM AKST
Astronomical Twilight 7:48 AM AKST 7:33 PM AKST
Moon 11:32 PM AKST (12/22) 12:20 PM AKST (12/22)
Length of Visible Light 8h 38m
Length of Day
7h 06m
Waning Gibbous, 75% of the Moon is Illuminated
Dec 22
Waning Gibbous
Dec 25
Last Quarter
Jan 1
New
Jan 7
First Quarter
Jan 15
Full

Hourly Weather History & Observations

Time (AKST) Temp. Windchill Dew Point Humidity Pressure Visibility Wind Dir Wind Speed Gust Speed Precip Events Conditions
12:16 AM 30.2 °F 15.2 °F 21.2 °F 69% 29.84 in 10.0 mi NNW 29.9 mph 39.1 mph N/A   Overcast
12:36 AM 30.2 °F 15.9 °F 23.0 °F 75% 29.85 in 10.0 mi NNW 26.5 mph 39.1 mph N/A   Overcast
12:56 AM 28.4 °F 12.7 °F 24.8 °F 86% 29.85 in 6.0 mi North 29.9 mph 39.1 mph N/A   Overcast
1:56 AM 30.2 °F 14.9 °F 21.2 °F 69% 29.87 in 10.0 mi NNW 31.1 mph 38.0 mph N/A   Overcast
2:16 AM 30.2 °F 14.9 °F 23.0 °F 75% 29.86 in 10.0 mi North 31.1 mph 41.4 mph N/A   Overcast
2:36 AM 30.2 °F 14.9 °F 23.0 °F 75% 29.88 in 10.0 mi NNW 31.1 mph 38.0 mph N/A   Overcast
2:56 AM 28.4 °F 13.3 °F 21.2 °F 74% 29.88 in 10.0 mi NNW 27.6 mph 38.0 mph N/A   Overcast
3:16 AM 28.4 °F 13.5 °F 21.2 °F 74% 29.89 in 10.0 mi NNW 26.5 mph 38.0 mph N/A   Overcast
3:36 AM 30.2 °F 17.1 °F 21.2 °F 69% 29.89 in 10.0 mi NNW 21.9 mph 29.9 mph N/A   Overcast
3:56 AM 28.4 °F 12.7 °F 21.2 °F 74% 29.90 in 10.0 mi NNW 29.9 mph 39.1 mph N/A   Overcast
4:16 AM 28.4 °F 12.0 °F 21.2 °F 74% 29.90 in 10.0 mi NNW 33.4 mph 36.8 mph N/A   Overcast
4:36 AM 30.2 °F 16.8 °F 21.2 °F 69% 29.92 in 10.0 mi NNW 23.0 mph 34.5 mph N/A   Overcast
4:56 AM 30.2 °F 16.2 °F 23.0 °F 75% 29.91 in 10.0 mi North 25.3 mph 36.8 mph N/A   Overcast
5:16 AM 28.4 °F 14.1 °F 23.0 °F 80% 29.92 in 10.0 mi NNW 24.2 mph 32.2 mph N/A   Overcast
5:36 AM 28.4 °F 13.8 °F 21.2 °F 74% 29.93 in 10.0 mi North 25.3 mph 35.7 mph N/A   Overcast
5:56 AM 28.4 °F 16.2 °F 21.2 °F 74% 29.95 in 10.0 mi NNW 17.3 mph 26.5 mph N/A   Overcast
6:16 AM 28.4 °F 16.2 °F 23.0 °F 80% 29.96 in 10.0 mi NW 17.3 mph 25.3 mph N/A   Overcast
6:36 AM 28.4 °F 13.8 °F 24.8 °F 86% 29.96 in 10.0 mi NNW 25.3 mph 28.8 mph N/A   Overcast
6:56 AM 28.4 °F 13.8 °F 21.2 °F 74% 29.97 in 10.0 mi NNW 25.3 mph 33.4 mph N/A   Mostly Cloudy
7:16 AM 28.4 °F 15.1 °F 21.2 °F 74% 29.97 in 10.0 mi NNW 20.7 mph 34.5 mph N/A   Mostly Cloudy
7:36 AM 28.4 °F 14.4 °F 21.2 °F 74% 29.97 in 10.0 mi NNW 23.0 mph 32.2 mph N/A   Mostly Cloudy
7:56 AM 28.4 °F 13.3 °F 21.2 °F 74% 29.98 in 10.0 mi North 27.6 mph 33.4 mph N/A   Overcast
8:16 AM 28.4 °F 12.5 °F 21.2 °F 74% 29.98 in 10.0 mi NNW 31.1 mph 36.8 mph N/A   Overcast
8:36 AM 28.4 °F 13.5 °F 21.2 °F 74% 30.00 in 10.0 mi NNW 26.5 mph 35.7 mph N/A   Overcast
8:56 AM 28.4 °F 13.8 °F 21.2 °F 74% 30.00 in 10.0 mi NNW 25.3 mph - N/A   Mostly Cloudy
9:16 AM 28.4 °F 14.7 °F 21.2 °F 74% 30.02 in 10.0 mi NNW 21.9 mph 33.4 mph N/A   Mostly Cloudy
9:36 AM 28.4 °F 14.7 °F 19.4 °F 69% 30.02 in 10.0 mi North 21.9 mph 29.9 mph N/A   Mostly Cloudy
9:56 AM 28.4 °F 13.5 °F 19.4 °F 69% 30.03 in 10.0 mi NNW 26.5 mph 31.1 mph N/A   Mostly Cloudy
10:16 AM 28.4 °F 14.7 °F 21.2 °F 74% 30.04 in 10.0 mi NNW 21.9 mph 35.7 mph N/A   Mostly Cloudy
10:36 AM 28.4 °F 15.4 °F 23.0 °F 80% 30.04 in 10.0 mi NNW 19.6 mph 29.9 mph N/A   Mostly Cloudy
10:56 AM 28.4 °F 14.4 °F 21.2 °F 74% 30.04 in 10.0 mi NNW 23.0 mph 28.8 mph N/A   Mostly Cloudy
11:16 AM 28.4 °F 13.5 °F 21.2 °F 74% 30.05 in 10.0 mi NNW 26.5 mph 34.5 mph N/A   Mostly Cloudy
11:36 AM 30.2 °F 16.2 °F 21.2 °F 69% 30.06 in 10.0 mi NNW 25.3 mph 33.4 mph N/A   Mostly Cloudy
11:56 AM 30.2 °F 16.8 °F 21.2 °F 69% 30.06 in 10.0 mi NNW 23.0 mph 34.5 mph N/A   Mostly Cloudy
12:16 PM 28.4 °F 14.1 °F 19.4 °F 69% 30.07 in 10.0 mi NNW 24.2 mph 27.6 mph N/A   Mostly Cloudy
12:36 PM 28.4 °F 14.4 °F 19.4 °F 69% 30.07 in 10.0 mi NNW 23.0 mph 27.6 mph N/A   Mostly Cloudy
12:56 PM 30.2 °F 15.7 °F 19.4 °F 64% 30.06 in 10.0 mi NNW 27.6 mph 32.2 mph N/A   Mostly Cloudy
1:46 PM 30.2 °F 16.8 °F - N/A% 30.06 in 10.0 mi WNW 23.0 mph - N/A   Mostly Cloudy
2:47 PM 28.4 °F 15.1 °F - N/A% 30.06 in 10.0 mi NNW 20.7 mph - N/A   Mostly Cloudy
3:52 PM 30.2 °F 16.5 °F - N/A% 30.07 in 10.0 mi WNW 24.2 mph - N/A   Mostly Cloudy
4:56 PM 28.4 °F 14.4 °F 15.8 °F 59% 30.09 in 10.0 mi NNW 23.0 mph - N/A   Mostly Cloudy
5:56 PM 28.4 °F 14.4 °F 17.6 °F 64% 30.09 in 10.0 mi NNW 23.0 mph - N/A   Partly Cloudy
6:56 PM 28.4 °F 17.5 °F 19.4 °F 69% 30.08 in - North 13.8 mph - N/A   Unknown
7:16 PM 28.4 °F 18.5 °F 19.4 °F 69% 30.08 in 10.0 mi North 11.5 mph - N/A   Clear
7:36 PM 28.4 °F 19.7 °F 19.4 °F 69% 30.08 in 10.0 mi North 9.2 mph - N/A   Clear
7:56 PM 28.4 °F 19.7 °F 17.6 °F 64% 30.09 in 10.0 mi NNW 9.2 mph - N/A   Clear
8:16 PM 28.4 °F - 17.6 °F 64% 30.10 in 10.0 mi Calm Calm - N/A   Clear
8:36 PM 28.4 °F - 19.4 °F 69% 30.10 in 10.0 mi Calm Calm - N/A   Clear
8:56 PM 26.6 °F 21.2 °F 17.6 °F 69% 30.10 in 10.0 mi East 4.6 mph - N/A   Clear
9:16 PM 26.6 °F - 17.6 °F 69% 30.10 in 10.0 mi Calm Calm - N/A   Clear
9:36 PM 26.6 °F - 17.6 °F 69% 30.10 in 10.0 mi Calm Calm - N/A   Clear
9:56 PM 26.6 °F 22.6 °F 17.6 °F 69% 30.11 in 10.0 mi East 3.5 mph - N/A   Clear
10:16 PM 26.6 °F 22.6 °F 17.6 °F 69% 30.10 in 10.0 mi East 3.5 mph - N/A   Clear
10:36 PM 26.6 °F 22.6 °F 19.4 °F 74% 30.10 in 10.0 mi ENE 3.5 mph - N/A   Clear
10:56 PM 26.6 °F 21.2 °F 19.4 °F 74% 30.10 in 10.0 mi East 4.6 mph - N/A   Clear
11:16 PM 26.6 °F 20.0 °F 19.4 °F 74% 30.10 in 10.0 mi ENE 5.8 mph - N/A   Clear
11:36 PM 26.6 °F 20.0 °F 19.4 °F 74% 30.10 in 10.0 mi East 5.8 mph - N/A   Clear
11:56 PM 26.6 °F 20.0 °F 19.4 °F 74% 30.10 in 10.0 mi East 5.8 mph - N/A   Clear